Huron, SD

10:28 AM CST on December 08, 2016 (GMT -0600)
Huron Regional

Weather History for KHON - January, 2014

Change the Weather History Date:

Wednesday, January 22, 2014

  Actual Average Record
Temperature  
Mean Temperature 6 °F 17 °F  
Max Temperature 18 °F 27 °F 60 °F (1900)
Min Temperature -7 °F 7 °F -31 °F (1886)
Degree Days  
Heating Degree Days 59 48  
Month to date heating degree days 1096 1071  
Since 1 July heating degree days 4419 4191  
Cooling Degree Days 0 0  
Month to date cooling degree days 0 0  
Year to date cooling degree days 0 0  
Moisture  
Dew Point -2 °F    
Average Humidity 73    
Maximum Humidity 84    
Minimum Humidity 62    
Precipitation  
Precipitation T in 0.01 in 0.50 in (1982)
Month to date precipitation 0.11 0.35  
Year to date precipitation 0.11 0.35  
Snow  
Snow T in 0.20 in 10.10 in (1982)
Month to date snowfall 0.5 5.1  
Since 1 July snowfall 15.9 21.4  
Snow Depth 1.00 in    
Sea Level Pressure  
Sea Level Pressure 30.38 in    
Wind  
Wind Speed 15 mph (NNW)    
Max Wind Speed 33 mph    
Max Gust Speed 39 mph    
Visibility 7 miles    
Events Snow    
T = Trace of Precipitation, MM = Missing Value Source: NWS Daily Summary

Daily Weather History Graph

Daily Weather History Graph

Search for Another Location

Airport or City:

Trip Planner

Search our weather history database for the weather conditions in past years. The results will help you decide how hot, cold, wet, or windy it might be!

Date:

Astronomy

Jan. 22, 2014 Rise Set
Actual Time 8:00 AM CST 5:28 PM CST
Civil Twilight 7:29 AM CST 6:00 PM CST
Nautical Twilight 6:53 AM CST 6:35 PM CST
Astronomical Twilight 6:19 AM CST 7:10 PM CST
Moon No Moon Rise 10:47 AM CST (1/22)
Length of Visible Light 10h 31m
Length of Day
9h 27m
Waning Gibbous, 65% of the Moon is Illuminated
Jan 22
Waning Gibbous
Jan 23
Last Quarter
Jan 30
New
Feb 6
First Quarter
Feb 14
Full

Hourly Weather History & Observations

Time (CST) Temp. Windchill Dew Point Humidity Pressure Visibility Wind Dir Wind Speed Gust Speed Precip Events Conditions
12:55 AM 17.1 °F 0.1 °F 10.0 °F 74% 30.17 in 10.0 mi NNW 20.7 mph - 0.00 in   Overcast
1:55 AM 16.0 °F 0.6 °F 9.0 °F 74% 30.17 in 10.0 mi NNW 16.1 mph - N/A   Mostly Cloudy
2:20 AM 14.0 °F 1.2 °F 8.6 °F 79% 30.09 in 10.0 mi NNW 10.4 mph - N/A   Scattered Clouds
2:55 AM 12.0 °F 0.5 °F 7.0 °F 80% 30.18 in 10.0 mi WNW 8.1 mph - N/A   Clear
3:55 AM 12.9 °F 2.6 °F 8.1 °F 81% 30.14 in 10.0 mi WSW 6.9 mph - N/A   Mostly Cloudy
4:55 AM 16.0 °F - 10.0 °F 77% 30.13 in 10.0 mi Calm Calm - N/A   Overcast
5:55 AM 14.0 °F - 8.1 °F 77% 30.14 in 10.0 mi Calm Calm - N/A   Overcast
6:55 AM 15.1 °F 9.4 °F 9.0 °F 77% 30.13 in 9.0 mi SW 3.5 mph - 0.00 in Snow Light Snow
7:09 AM 15.8 °F 8.6 °F 8.6 °F 73% 30.07 in 7.0 mi WSW 4.6 mph - 0.00 in Snow Light Snow
7:55 AM 15.1 °F 1.1 °F 10.0 °F 80% 30.19 in 2.5 mi NNE 12.7 mph - 0.00 in Snow Light Snow
8:07 AM 15.8 °F 1.4 °F 10.4 °F 79% 30.12 in 4.0 mi North 13.8 mph - 0.00 in Snow Light Snow
8:15 AM 17.6 °F 3.2 °F 10.4 °F 73% 30.12 in 5.0 mi North 15.0 mph - 0.00 in Snow Light Snow
8:44 AM 15.8 °F -1.9 °F 10.4 °F 79% 30.17 in 2.5 mi North 21.9 mph 31.1 mph 0.00 in Snow Light Snow
8:53 AM 12.2 °F -8.6 °F 6.8 °F 79% 30.19 in 1.0 mi North 27.6 mph 35.7 mph 0.00 in Snow Light Snow
8:55 AM 10.9 °F -8.3 °F 6.1 °F 81% 30.27 in 1.0 mi North 21.9 mph 35.7 mph 0.00 in Snow Light Snow
9:06 AM 10.4 °F -9.1 °F 3.2 °F 73% 30.21 in 2.0 mi North 21.9 mph 35.7 mph 0.00 in Snow Light Snow
9:21 AM 8.6 °F -12.7 °F 3.2 °F 79% 30.22 in 2.5 mi North 25.3 mph 32.2 mph 0.00 in Snow Light Snow
9:30 AM 8.6 °F -11.4 °F 3.2 °F 79% 30.24 in 5.0 mi North 21.9 mph 34.5 mph 0.00 in   Overcast
9:47 AM 8.6 °F -11.9 °F 3.2 °F 79% 30.26 in 1.8 mi North 23.0 mph 28.8 mph 0.00 in Snow Light Snow
9:55 AM 9.0 °F -13.3 °F 3.0 °F 77% 30.34 in 1.0 mi North 28.8 mph 36.8 mph 0.00 in Snow Light Snow
10:08 AM 6.8 °F -16.6 °F 1.4 °F 79% 30.29 in 0.8 mi North 29.9 mph 38.0 mph 0.00 in Snow Light Snow
10:16 AM 6.8 °F -17.6 °F -0.4 °F 72% 30.30 in 2.0 mi North 33.4 mph 39.1 mph 0.00 in   Overcast
10:28 AM 3.2 °F -21.5 °F -0.4 °F 85% 30.32 in 1.2 mi North 29.9 mph 36.8 mph 0.00 in Snow Light Snow
10:34 AM 3.2 °F -19.5 °F -4.0 °F 72% 30.33 in 3.0 mi North 24.2 mph 36.8 mph 0.00 in Snow Blowing Snow
10:46 AM 3.2 °F -20.7 °F -4.0 °F 72% 30.35 in 4.0 mi North 27.6 mph 35.7 mph 0.00 in Snow Blowing Snow
10:55 AM 1.9 °F -22.4 °F -6.0 °F 69% 30.43 in 10.0 mi North 27.6 mph 34.5 mph 0.00 in   Mostly Cloudy
11:39 AM 1.4 °F -22.7 °F -9.4 °F 61% 30.37 in 10.0 mi North 26.5 mph 35.7 mph N/A   Scattered Clouds
11:55 AM 1.0 °F -21.9 °F -9.0 °F 63% 30.47 in 10.0 mi North 23.0 mph 32.2 mph N/A   Scattered Clouds
12:21 PM 1.4 °F -21.4 °F -7.6 °F 66% 30.39 in 7.0 mi North 23.0 mph 32.2 mph N/A   Mostly Cloudy
12:55 PM 1.0 °F -22.4 °F -8.0 °F 66% 30.49 in 9.0 mi North 24.2 mph 33.4 mph N/A   Overcast
1:42 PM 1.4 °F -19.9 °F -9.4 °F 61% 30.42 in 10.0 mi North 19.6 mph 29.9 mph N/A   Scattered Clouds
1:55 PM 1.0 °F -21.4 °F -8.0 °F 66% 30.52 in 4.0 mi North 21.9 mph - 0.00 in   Mostly Cloudy
2:55 PM 1.0 °F -20.9 °F -8.0 °F 66% 30.53 in 9.0 mi North 20.7 mph 27.6 mph 0.00 in   Mostly Cloudy
3:26 PM 1.4 °F -20.5 °F -9.4 °F 61% 30.46 in 10.0 mi North 20.7 mph 28.8 mph N/A   Scattered Clouds
3:55 PM 1.0 °F -20.9 °F -9.9 °F 60% 30.58 in 10.0 mi North 20.7 mph - N/A   Scattered Clouds
4:37 PM -0.4 °F -21.7 °F -9.4 °F 66% 30.50 in 10.0 mi North 18.4 mph 26.5 mph N/A   Mostly Cloudy
4:44 PM -0.4 °F -22.8 °F -11.2 °F 60% 30.51 in 10.0 mi North 20.7 mph - N/A   Partly Cloudy
4:55 PM -0.0 °F -19.4 °F -9.9 °F 63% 30.61 in 10.0 mi North 15.0 mph 23.0 mph N/A   Scattered Clouds
5:55 PM -2.0 °F -21.2 °F -11.0 °F 66% 30.64 in 10.0 mi NNW 13.8 mph - N/A   Clear
6:55 PM -2.9 °F -21.6 °F -11.0 °F 68% 30.68 in 10.0 mi North 12.7 mph - N/A   Clear
7:55 PM -4.0 °F -22.1 °F -11.9 °F 69% 30.70 in 10.0 mi NNW 11.5 mph - N/A   Clear
8:55 PM -4.0 °F -23.7 °F -11.9 °F 69% 30.72 in 10.0 mi NNW 13.8 mph - N/A   Clear
9:55 PM -5.1 °F -24.3 °F -13.0 °F 69% 30.74 in 10.0 mi NNW 12.7 mph - N/A   Clear
10:55 PM -6.0 °F -24.6 °F -13.0 °F 72% 30.77 in 10.0 mi NNW 11.5 mph - N/A   Clear
11:55 PM -7.1 °F -25.0 °F -14.1 °F 72% 30.80 in 10.0 mi NW 10.4 mph - N/A   Clear